When you browse on this site, cookies collect data to enhance your experience and personalize the content and advertising you see.
Visit our Privacy Policy to learn more. By continuing to use the site, you agree to this use of cookies and data.
  • In Latvia
  • List of Countries
  • For 7 days
  • Water Temperature
  • Satellite Maps
  • Weather Map
  • Weather Widgets
  • user-avatar
    Login

    Hourly Weather Pieczonogi

    Today, 20 February, Wednesday

    Time Temperature Precipitation Wind Pressure Humidity
    00:00 +5°C° 0.5 mm 5 mps 738 mmHg 83%
    01:00 +4°C° 0 mm 4 mps 738 mmHg 85%
    02:00 +4°C° 0 mm 4 mps 739 mmHg 85%
    03:00 +3°C° 0 mm 4 mps 739 mmHg 86%
    04:00 +1°C° 0 mm 5 mps 739 mmHg 87%
    05:00 +1°C° 0 mm 5 mps 739 mmHg 87%
    06:00 +1°C° 0 mm 5 mps 739 mmHg 87%
    07:00 +1°C° 0 mm 5 mps 739 mmHg 87%
    08:00 +1°C° 0 mm 5 mps 740 mmHg 83%
    09:00 +2°C° 0 mm 6 mps 740 mmHg 79%
    10:00 +3°C° 0 mm 7 mps 740 mmHg 75%
    11:00 +3°C° 0 mm 7 mps 741 mmHg 73%
    12:00 +3°C° 0 mm 6 mps 741 mmHg 71%
    13:00 +3°C° 0 mm 6 mps 741 mmHg 69%
    14:00 +4°C° 0 mm 6 mps 741 mmHg 69%
    15:00 +4°C° 0 mm 6 mps 741 mmHg 68%
    16:00 +5°C° 0 mm 5 mps 741 mmHg 67%
    17:00 +3°C° 0 mm 5 mps 742 mmHg 70%
    18:00 +4°C° 0 mm 4 mps 742 mmHg 74%
    19:00 +3°C° 0 mm 3 mps 742 mmHg 77%
    20:00 +3°C° 0 mm 3 mps 743 mmHg 78%
    21:00 +3°C° 0 mm 4 mps 743 mmHg 78%
    22:00 +3°C° 0 mm 4 mps 743 mmHg 79%
    23:00 +3°C° 0 mm 4 mps 743 mmHg 80%

    Tomorrow, 21 February, Thursday

    Time Temperature Precipitation Wind Pressure Humidity
    00:00 +3°C° 0 mm 4 mps 744 mmHg 81%
    01:00 +3°C° 0 mm 3 mps 744 mmHg 82%
    02:00 +3°C° 0 mm 4 mps 744 mmHg 82%
    03:00 +3°C° 0 mm 4 mps 744 mmHg 82%
    04:00 +3°C° 0 mm 4 mps 744 mmHg 82%
    05:00 +3°C° 0 mm 4 mps 744 mmHg 82%
    06:00 +3°C° 0 mm 4 mps 744 mmHg 82%
    07:00 +3°C° 0 mm 4 mps 744 mmHg 81%
    08:00 +3°C° 0 mm 5 mps 744 mmHg 77%
    09:00 +3°C° 0 mm 5 mps 744 mmHg 73%
    10:00 +4°C° 0 mm 6 mps 744 mmHg 69%
    11:00 +6°C° 0 mm 5 mps 744 mmHg 67%
    12:00 +6°C° 0 mm 5 mps 743 mmHg 65%
    13:00 +6°C° 0 mm 5 mps 743 mmHg 63%
    14:00 +6°C° 0.5 mm 5 mps 743 mmHg 66%
    15:00 +6°C° 0.5 mm 5 mps 742 mmHg 69%
    16:00 +5°C° 0.5 mm 5 mps 742 mmHg 72%
    17:00 +4°C° 0.9 mm 6 mps 742 mmHg 75%
    18:00 +4°C° 0.9 mm 6 mps 742 mmHg 78%
    19:00 +4°C° 0.9 mm 7 mps 741 mmHg 81%
    20:00 +4°C° 0.4 mm 7 mps 741 mmHg 81%
    21:00 +4°C° 0.4 mm 7 mps 741 mmHg 81%
    22:00 +4°C° 0.4 mm 7 mps 741 mmHg 81%
    23:00 +4°C° 0.4 mm 6 mps 740 mmHg 83%

    Day after tomorrow, 22 February, Friday

    Time Temperature Precipitation Wind Pressure Humidity
    00:00 +4°C° 0.4 mm 6 mps 740 mmHg 85%
    01:00 +4°C° 0.4 mm 6 mps 740 mmHg 87%
    02:00 +4°C° 0.8 mm 6 mps 739 mmHg 88%
    03:00 +4°C° 0.8 mm 6 mps 739 mmHg 88%
    04:00 +4°C° 0.8 mm 6 mps 739 mmHg 89%
    05:00 +4°C° 0.5 mm 6 mps 739 mmHg 89%
    06:00 +4°C° 0.5 mm 6 mps 740 mmHg 89%
    07:00 +3°C° 0.5 mm 6 mps 741 mmHg 88%
    08:00 +2°C° 0.4 mm 6 mps 742 mmHg 84%
    09:00 -1°C° 0.4 mm 7 mps 743 mmHg 80%
    10:00 -2°C° 0.4 mm 7 mps 744 mmHg 75%
    11:00 -2°C° 0 mm 7 mps 745 mmHg 70%
    12:00 -2°C° 0 mm 6 mps 746 mmHg 64%
    13:00 -2°C° 0 mm 6 mps 747 mmHg 59%
    14:00 -2°C° 0 mm 6 mps 748 mmHg 57%
    15:00 -3°C° 0 mm 6 mps 749 mmHg 55%
    16:00 -3°C° 0 mm 6 mps 749 mmHg 54%
    17:00 -4°C° 0 mm 6 mps 750 mmHg 56%
    18:00 -5°C° 0 mm 5 mps 751 mmHg 59%
    19:00 -6°C° 0 mm 5 mps 751 mmHg 61%
    20:00 -6°C° 0 mm 5 mps 752 mmHg 59%
    21:00 -7°C° 0 mm 5 mps 752 mmHg 57%
    22:00 -7°C° 0 mm 5 mps 753 mmHg 55%
    23:00 -7°C° 0 mm 4 mps 753 mmHg 52%

    23 February, Saturday

    Time Temperature Precipitation Wind Pressure Humidity
    00:00 -7°C° 0 mm 4 mps 753 mmHg 50%
    01:00 -7°C° 0 mm 4 mps 754 mmHg 47%
    02:00 -7°C° 0 mm 4 mps 754 mmHg 46%
    03:00 -8°C° 0 mm 4 mps 754 mmHg 44%
    04:00 -8°C° 0 mm 4 mps 754 mmHg 43%
    05:00 -8°C° 0 mm 4 mps 754 mmHg 43%
    06:00 -7°C° 0 mm 3 mps 754 mmHg 43%
    07:00 -7°C° 0 mm 3 mps 755 mmHg 43%
    08:00 -7°C° 0 mm 3 mps 755 mmHg 40%
    09:00 -7°C° 0 mm 4 mps 755 mmHg 38%
    10:00 -5°C° 0 mm 4 mps 756 mmHg 35%
    11:00 -5°C° 0 mm 4 mps 756 mmHg 33%
    12:00 -4°C° 0 mm 3 mps 755 mmHg 30%
    13:00 -2°C° 0 mm 3 mps 755 mmHg 27%
    14:00 -4°C° 0 mm 3 mps 755 mmHg 28%
    15:00 -4°C° 0 mm 3 mps 755 mmHg 29%
    16:00 -4°C° 0 mm 3 mps 755 mmHg 30%
    17:00 -4°C° 0 mm 3 mps 755 mmHg 33%
    18:00 -4°C° 0 mm 2 mps 755 mmHg 37%
    19:00 -4°C° 0 mm 2 mps 755 mmHg 41%
    20:00 -4°C° 0 mm 2 mps 755 mmHg 41%
    21:00 -3°C° 0 mm 1 mps 755 mmHg 42%
    22:00 -3°C° 0 mm 1 mps 755 mmHg 42%
    23:00 -3°C° 0 mm 1 mps 755 mmHg 42%

    24 February, Sunday

    Time Temperature Precipitation Wind Pressure Humidity
    00:00 -3°C° 0 mm 1 mps 755 mmHg 42%
    01:00 -3°C° 0 mm 1 mps 754 mmHg 42%
    02:00 -2°C° 0 mm 1 mps 754 mmHg 41%
    03:00 -2°C° 0 mm 1 mps 754 mmHg 41%
    04:00 -2°C° 0 mm 1 mps 754 mmHg 40%
    05:00 -2°C° 0 mm 1 mps 754 mmHg 40%
    06:00 -2°C° 0 mm 1 mps 754 mmHg 41%
    07:00 -3°C° 0 mm 1 mps 753 mmHg 42%
    08:00 -4°C° 0 mm 2 mps 754 mmHg 38%
    09:00 -2°C° 0 mm 2 mps 754 mmHg 35%
    10:00 -1°C° 0 mm 2 mps 754 mmHg 31%
    11:00 -1°C° 0 mm 2 mps 753 mmHg 32%
    12:00 0°C° 0 mm 3 mps 753 mmHg 32%
    13:00 +1°C° 0 mm 3 mps 752 mmHg 32%
    14:00 +1°C° 0 mm 3 mps 752 mmHg 34%
    15:00 +2°C° 0 mm 2 mps 752 mmHg 37%
    16:00 +2°C° 0 mm 2 mps 752 mmHg 40%
    17:00 +1°C° 0 mm 2 mps 752 mmHg 43%
    18:00 -1°C° 0 mm 2 mps 752 mmHg 46%
    19:00 -2°C° 0 mm 2 mps 752 mmHg 49%
    20:00 -2°C° 0 mm 2 mps 752 mmHg 51%
    21:00 -2°C° 0 mm 2 mps 753 mmHg 52%
    22:00 -2°C° 0 mm 2 mps 753 mmHg 53%
    23:00 -2°C° 0 mm 2 mps 753 mmHg 53%

    25 February, Monday

    Time Temperature Precipitation Wind Pressure Humidity
    00:00 -2°C° 0 mm 2 mps 753 mmHg 54%
    01:00 -1°C° 0 mm 2 mps 753 mmHg 54%
    02:00 -2°C° 0 mm 2 mps 752 mmHg 56%
    03:00 -2°C° 0 mm 2 mps 752 mmHg 58%
    04:00 -2°C° 0 mm 2 mps 752 mmHg 59%
    05:00 -2°C° 0 mm 2 mps 752 mmHg 59%
    06:00 -2°C° 0 mm 2 mps 752 mmHg 59%
    07:00 -2°C° 0 mm 2 mps 752 mmHg 59%
    08:00 -1°C° 0 mm 2 mps 752 mmHg 60%
    09:00 0°C° 0 mm 3 mps 752 mmHg 61%
    10:00 0°C° 0 mm 3 mps 752 mmHg 62%
    11:00 0°C° 0 mm 4 mps 751 mmHg 59%
    12:00 +1°C° 0 mm 4 mps 751 mmHg 56%
    13:00 +2°C° 0 mm 5 mps 750 mmHg 53%
    14:00 +3°C° 0 mm 4 mps 750 mmHg 57%
    15:00 +3°C° 0 mm 4 mps 750 mmHg 61%
    16:00 +3°C° 0 mm 4 mps 749 mmHg 64%
    17:00 +1°C° 0 mm 4 mps 750 mmHg 73%
    18:00 +1°C° 0 mm 3 mps 750 mmHg 81%
    19:00 0°C° 0 mm 3 mps 750 mmHg 89%
    20:00 -1°C° 0 mm 3 mps 750 mmHg 90%
    21:00 -1°C° 0 mm 3 mps 750 mmHg 90%
    22:00 -1°C° 0 mm 3 mps 750 mmHg 91%
    23:00 -1°C° 0 mm 3 mps 750 mmHg 91%
    Show more